TimeAST,TemperatureF,Dew PointF,Humidity,Sea Level PressureIn,VisibilityMPH,Wind Direction,Wind SpeedMPH,Gust SpeedMPH,PrecipitationIn,Events,Conditions,WindDirDegrees,DateUTC
12:00 AM,78.8,75.2,89,29.86,6.2,Calm,Calm,-,N/A,,Partly Cloudy,0,2012-11-07 04:00:00
1:00 AM,77.0,75.2,94,29.83,6.2,Calm,Calm,-,N/A,,Partly Cloudy,0,2012-11-07 05:00:00
2:00 AM,77,74,90,29.82,16,Calm,Calm,,,,Scattered Clouds,,2012-11-07 06:00:00
2:00 AM,77.0,75.2,94,29.80,6.2,Calm,Calm,-,N/A,,Partly Cloudy,0,2012-11-07 06:00:00
3:00 AM,77.0,75.2,94,29.80,6.2,Calm,Calm,-,N/A,,Partly Cloudy,0,2012-11-07 07:00:00
4:00 AM,77.0,75.2,94,29.80,6.2,Calm,Calm,-,N/A,,Partly Cloudy,0,2012-11-07 08:00:00
5:00 AM,76,74,91,29.83,16,Calm,Calm,,,,Scattered Clouds,,2012-11-07 09:00:00
5:00 AM,75.2,73.4,94,29.83,6.2,Calm,Calm,-,N/A,,Partly Cloudy,0,2012-11-07 09:00:00
6:00 AM,77.0,75.2,94,29.83,6.2,Calm,Calm,-,N/A,,Mostly Cloudy,0,2012-11-07 10:00:00
7:00 AM,78.8,75.2,89,29.86,6.2,Calm,Calm,-,N/A,,Scattered Clouds,0,2012-11-07 11:00:00
8:00 AM,83,76,73,29.88,14,Calm,Calm,,,,,,2012-11-07 12:00:00
8:00 AM,84.2,75.2,74,29.86,6.2,Calm,Calm,-,N/A,,Partly Cloudy,0,2012-11-07 12:00:00
9:00 AM,87.8,75.2,66,29.89,6.2,ESE,12.7,-,N/A,,Scattered Clouds,110,2012-11-07 13:00:00
10:00 AM,89.6,73.4,59,29.89,6.2,ESE,13.8,-,N/A,,Scattered Clouds,120,2012-11-07 14:00:00
11:00 AM,91,73,46,29.88,12,ESE,16.1,,,,Partly Cloudy,120,2012-11-07 15:00:00
11:00 AM,91.4,73.4,55,29.86,6.2,ESE,16.1,-,N/A,,Scattered Clouds,120,2012-11-07 15:00:00
12:00 PM,89.6,73.4,59,29.83,6.2,ESE,17.3,-,N/A,,Scattered Clouds,110,2012-11-07 16:00:00
1:00 PM,91.4,73.4,55,29.80,6.2,ESE,16.1,-,N/A,,Scattered Clouds,110,2012-11-07 17:00:00
2:00 PM,92,74,47,29.81,19,ESE,12.7,,,,Partly Cloudy,120,2012-11-07 18:00:00
2:00 PM,91.4,73.4,55,29.80,6.2,ESE,12.7,-,N/A,,Scattered Clouds,120,2012-11-07 18:00:00
3:00 PM,91.4,73.4,55,29.80,6.2,ESE,12.7,-,N/A,,Scattered Clouds,120,2012-11-07 19:00:00
4:00 PM,87.8,75.2,66,29.80,6.2,ESE,16.1,-,N/A,,Scattered Clouds,110,2012-11-07 20:00:00
5:00 PM,87,75,59,29.80,16,ESE,13.8,,,,Scattered Clouds,110,2012-11-07 21:00:00
5:00 PM,86.0,75.2,70,29.80,6.2,ESE,13.8,-,N/A,,Partly Cloudy,110,2012-11-07 21:00:00
6:00 PM,82.4,75.2,79,29.80,6.2,ESE,9.2,-,N/A,,Partly Cloudy,110,2012-11-07 22:00:00
7:00 PM,82.4,75.2,79,29.80,6.2,ESE,6.9,-,N/A,,Partly Cloudy,110,2012-11-07 23:00:00
8:00 PM,81,73,70,29.85,12,Calm,Calm,,,,Scattered Clouds,,2012-11-08 00:00:00
8:00 PM,80.6,73.4,79,29.83,6.2,Calm,Calm,-,N/A,,Partly Cloudy,0,2012-11-08 00:00:00
9:00 PM,80.6,73.4,79,29.86,6.2,Calm,Calm,-,N/A,,Partly Cloudy,0,2012-11-08 01:00:00
10:00 PM,80.6,75.2,84,29.86,6.2,Calm,Calm,-,N/A,,Partly Cloudy,0,2012-11-08 02:00:00
11:00 PM,79,77,91,29.88,12,Calm,Calm,,,,Smoke,,2012-11-08 03:00:00
11:00 PM,78.8,77.0,94,29.86,6.2,Calm,Calm,-,N/A,,Partly Cloudy,0,2012-11-08 03:00:00